TimeMST,TemperatureF,Dew PointF,Humidity,Sea Level PressureIn,VisibilityMPH,Wind Direction,Wind SpeedMPH,Gust SpeedMPH,PrecipitationIn,Events,Conditions,WindDirDegrees,DateUTC
12:53 AM,30.9,19.9,64,30.30,10.0,WSW,13.8,-,N/A,,Clear,250,2013-11-07 07:53:00
1:53 AM,28.9,19.0,67,30.29,10.0,ESE,5.8,-,N/A,,Clear,110,2013-11-07 08:53:00
2:53 AM,27.0,19.9,75,30.30,10.0,WNW,8.1,-,N/A,,Clear,300,2013-11-07 09:53:00
3:53 AM,28.0,19.0,69,30.31,10.0,NW,6.9,-,N/A,,Clear,320,2013-11-07 10:53:00
4:53 AM,30.9,19.0,61,30.32,10.0,SW,3.5,-,N/A,,Clear,230,2013-11-07 11:53:00
5:53 AM,28.0,19.0,69,30.33,10.0,SSW,4.6,-,N/A,,Clear,210,2013-11-07 12:53:00
6:53 AM,30.0,19.0,64,30.33,10.0,SSE,3.5,-,N/A,,Clear,150,2013-11-07 13:53:00
7:53 AM,30.0,21.0,69,30.34,10.0,West,8.1,-,N/A,,Clear,270,2013-11-07 14:53:00
8:53 AM,28.0,23.0,81,30.35,9.0,Calm,Calm,-,N/A,,Clear,0,2013-11-07 15:53:00
9:53 AM,33.1,21.9,64,30.33,10.0,Calm,Calm,-,N/A,,Clear,0,2013-11-07 16:53:00
10:53 AM,37.9,24.1,57,30.28,10.0,Calm,Calm,-,N/A,,Clear,0,2013-11-07 17:53:00
11:53 AM,39.9,24.1,53,30.24,10.0,Calm,Calm,-,N/A,,Clear,0,2013-11-07 18:53:00
12:53 PM,41.0,24.1,51,30.17,10.0,NNE,3.5,-,N/A,,Clear,20,2013-11-07 19:53:00
1:53 PM,44.1,26.1,49,30.13,10.0,NNW,5.8,-,N/A,,Clear,330,2013-11-07 20:53:00
2:53 PM,46.9,27.0,46,30.08,10.0,Calm,Calm,-,N/A,,Clear,0,2013-11-07 21:53:00
3:53 PM,46.9,27.0,46,30.05,10.0,Calm,Calm,-,N/A,,Clear,0,2013-11-07 22:53:00
4:53 PM,44.1,27.0,51,30.02,10.0,SW,5.8,-,N/A,,Clear,230,2013-11-07 23:53:00
5:53 PM,46.0,27.0,47,30.01,10.0,WNW,10.4,-,N/A,,Clear,290,2013-11-08 00:53:00
6:53 PM,50.0,28.9,44,29.97,10.0,SW,17.3,25.3,N/A,,Clear,230,2013-11-08 01:53:00
7:53 PM,48.0,28.0,46,29.94,10.0,WSW,4.6,-,N/A,,Clear,250,2013-11-08 02:53:00
8:53 PM,51.1,28.0,41,29.88,10.0,West,8.1,27.6,N/A,,Clear,270,2013-11-08 03:53:00
9:16 PM,54.0,27.0,35,29.88,10.0,South,27.6,35.7,N/A,,Clear,190,2013-11-08 04:16:00
9:53 PM,50.0,28.0,43,29.83,10.0,South,9.2,-,N/A,,Partly Cloudy,180,2013-11-08 04:53:00
10:53 PM,46.9,28.9,50,29.80,10.0,North,-9999.0,-,N/A,,Partly Cloudy,0,2013-11-08 05:53:00
11:53 PM,52.0,26.1,37,29.75,10.0,NW,21.9,31.1,N/A,,Clear,320,2013-11-08 06:53:00